#timestamp,LO_Frequency,Hit,StdDev 
1547211615.5,286046995.3,N
1547211635.4,286046997.6,N
1547211655.2,286046995.7,N
1547211675.0,286046993.4,N
1547211675.9,286046993.4,N
1547211695.8,286046998.0,N
1547211715.6,286046997.6,N
1547211735.4,286046995.4,N
1547211755.3,286046995.8,N
1547211775.1,286046996.3,N
1547211795.9,286046996.1,N
1547211815.7,286046997.2,N
1547211835.5,286046997.3,N
1547211855.4,286046998.6,N
1547211875.2,286047002.4,N
1547211895.0,286047000.6,N
1547211896.0,286047000.6,N
1547211915.8,286046999.1,N
1547211935.6,286046999.5,N
1547211955.5,286046996.9,N
1547211975.3,286046998.9,N
1547211995.1,286046997.5,N
1547212015.9,286046995.3,N
1547212035.7,286046997.6,N
1547212055.6,286046998.8,N
1547212075.4,286046998.9,N
1547212095.2,286046996.7,N
1547212115.1,286046996.6,N
1547212116.0,286046996.6,N
1547212135.8,286046995.2,N
1547212155.6,286046997.8,N
1547212175.5,286046995.0,N
1547212195.3,286046997.3,N
1547212215.2,286046997.7,N
1547212235.9,286046996.8,N
1547212255.7,286046997.3,N
1547212275.6,286046997.6,N
1547212295.4,286046995.5,N
1547212315.3,286046996.0,N
1547212335.1,286046997.8,N
1547212336.0,286046997.8,N
1547212355.8,286046997.8,N
1547212375.7,286046996.0,N
1547212395.5,286046994.8,Y
1547212415.3,286046996.3,P
1547212435.2,286046993.4,P
1547212455.0,286046993.3,P
1547212455.9,286046993.3,Y
1547212475.8,286046999.3,P
1547212495.6,286046998.5,N
1547212515.4,286047000.0,N
1547212535.3,286047002.8,N
1547212555.1,286046999.7,N
1547212575.9,286047001.0,N
1547212595.7,286047001.1,N
1547212615.5,286047002.8,N
1547212635.4,286046999.0,N
1547212655.2,286046998.4,N
1547212675.0,286046998.6,N
1547212675.9,286046998.6,N
1547212695.8,286046998.7,N
1547212715.6,286047001.8,N
1547212735.4,286047002.3,N
1547212755.3,286047002.8,N
1547212775.1,286047003.2,N
1547212795.9,286047003.6,N
1547212815.7,286047001.6,N
1547212835.5,286047006.4,N
1547212855.4,286047006.6,N
1547212875.2,286047006.0,N
1547212895.0,286047003.5,N
1547212895.9,286047003.5,N
1547212915.8,286047005.5,N
1547212935.6,286047007.9,N
1547212955.5,286047008.2,N
1547212975.3,286047010.6,Y
1547212995.1,286047008.1,P
1547213015.9,286047008.8,N
1547213035.7,286047006.5,N
1547213055.6,286047009.1,Y
1547213075.4,286046999.9,P
1547213095.2,286046998.2,N
1547213115.1,286046996.5,N
1547213116.0,286046996.5,N
1547213135.8,286046997.0,N
1547213155.6,286046995.7,N
1547213175.5,286046993.5,N
1547213195.3,286046995.5,N
1547213215.2,286047000.7,N
1547213235.9,286047002.3,N
1547213255.7,286047002.6,N
1547213275.6,286047001.7,N
1547213295.4,286047004.9,N
1547213315.2,286047007.5,N
1547213335.1,286047007.4,N
1547213336.0,286047007.4,N
1547213355.8,286047005.5,N
1547213375.7,286047005.7,N
1547213395.5,286047007.5,N
1547213415.3,286047005.1,N
1547213435.2,286047003.5,N
1547213455.0,286047003.6,N
1547213455.9,286047003.6,N
1547213475.8,286047003.8,N
1547213495.6,286047002.1,N
1547213515.4,286047001.3,N
1547213535.3,286047002.2,N
1547213555.1,286047000.4,N
1547213575.8,286047000.5,N
1547213595.7,286046999.1,N
1547213615.5,286046999.3,N
1547213635.4,286046996.5,N
1547213655.2,286046996.5,N
1547213675.0,286046997.5,N
1547213675.9,286046997.5,N
1547213695.8,286046999.4,N
1547213715.6,286046998.7,N
1547213735.4,286046997.0,N
1547213755.3,286046997.0,N
1547213775.1,286046998.5,N
1547213795.9,286046998.8,N
1547213815.7,286046996.8,N
1547213835.5,286046999.4,N
1547213855.4,286047000.7,N
1547213875.2,286046996.9,N
1547213895.0,286046996.9,N
1547213895.9,286046996.9,N
1547213915.8,286046997.4,N
1547213935.6,286046997.6,N
1547213955.5,286046997.8,N
1547213975.3,286046998.3,N
1547213995.1,286046997.1,N
1547214015.9,286046996.7,N
1547214035.7,286046996.5,N
1547214055.5,286046997.1,N
1547214075.4,286046996.0,N
1547214095.2,286046994.0,Y
1547214115.1,286046997.4,P
1547214116.0,286046997.4,P
1547214135.8,286046995.3,P
1547214155.6,286046995.4,Y
1547214175.5,286047001.1,P
1547214195.3,286046999.3,N
1547214215.2,286047000.3,N
1547214235.9,286047001.2,N
1547214255.7,286047002.8,N
1547214275.6,286047002.1,N
1547214295.4,286046999.8,N
1547214315.2,286047000.4,N
1547214335.1,286046999.7,N
1547214336.0,286046999.7,N
1547214355.8,286047003.1,N
1547214375.6,286047003.6,N
1547214395.5,286047005.6,Y
1547214415.3,286047001.6,P
1547214435.2,286047000.9,N
1547214455.9,286047011.9,P
1547214475.7,286047000.6,N
1547214495.6,286047002.8,N
1547214515.4,286047000.7,N
1547214535.3,286047000.9,N
1547214555.1,286047002.5,N
1547214556.0,286047002.5,N
1547214575.8,286046998.3,N
1547214595.7,286046998.3,N
1547214615.5,286047002.2,N
1547214635.3,286047000.1,N
1547214655.2,286046998.2,N
1547214675.0,286047002.4,N
1547214675.9,286047002.4,N
1547214695.8,286047001.0,N
1547214715.6,286047000.6,N
1547214735.4,286047001.7,N
1547214755.3,286047000.1,N
1547214775.1,286047003.5,N
1547214795.8,286047001.8,N
1547214815.7,286047004.0,N
1547214835.5,286047004.2,N
1547214855.4,286047002.2,N
1547214875.2,286047002.7,N
1547214895.0,286047000.9,N
1547214895.9,286047000.9,N
1547214915.8,286046998.5,N
1547214935.6,286046999.8,N
1547214955.5,286047000.6,N
1547214975.3,286047000.3,N
1547214995.1,286047000.4,N
1547215015.9,286047000.9,N
1547215035.7,286047000.1,N
1547215055.6,286047000.3,N
1547215075.4,286046998.5,N
1547215095.2,286046999.0,N
1547215115.1,286046998.1,N
1547215116.0,286046998.1,N
1547215135.8,286047000.2,N
1547215155.6,286047000.8,N
1547215175.5,286047000.9,N
1547215195.3,286046998.3,N
